CDT,Max TemperatureF,Mean TemperatureF,Min TemperatureF,Max Dew PointF,MeanDew PointF,Min DewpointF,Max Humidity, Mean Humidity, Min Humidity, Max Sea Level PressureIn, Mean Sea Level PressureIn, Min Sea Level PressureIn, Max VisibilityMiles, Mean VisibilityMiles, Min VisibilityMiles, Max Wind SpeedMPH, Mean Wind SpeedMPH, Max Gust SpeedMPH,PrecipitationIn, CloudCover, Events, WindDirDegrees
2013-6-1,79,72,66,71,66,62,92,85,72,29.97,29.89,29.79,10,8,2,25,11,30,3.47,6,Rain-Thunderstorm,159
2013-6-2,79,72,66,66,61,58,89,70,50,30.00,29.95,29.91,10,10,10,13,7,21,0.00,5,,320
2013-6-3,77,69,61,59,56,53,87,67,44,30.08,30.02,29.98,10,9,2,9,5,,0.00,4,,10
2013-6-4,82,70,57,64,57,53,86,63,40,30.08,30.03,29.97,10,10,10,7,4,,0.00,2,,41
2013-6-5,86,76,66,66,61,56,83,61,38,29.99,29.91,29.82,10,10,5,8,2,,0.09,2,Rain-Thunderstorm,6
2013-6-6,85,77,69,66,63,59,88,65,42,29.84,29.81,29.78,10,9,4,13,6,18,0.00,3,,338
2013-6-7,83,75,67,60,57,52,73,55,35,29.90,29.85,29.81,10,10,10,15,8,20,0.00,2,,327
2013-6-8,84,72,61,63,57,51,87,61,33,30.00,29.95,29.90,10,10,5,7,1,,0.00,2,,210
2013-6-9,80,74,67,70,64,57,89,72,57,29.99,29.91,29.82,10,10,7,12,4,,0.01,4,Rain,157
2013-6-10,87,78,68,68,64,60,89,68,39,29.93,29.86,29.83,10,9,5,13,7,18,0.03,3,Rain,248
2013-6-11,97,82,66,72,68,63,91,63,39,30.01,29.95,29.90,10,10,10,9,3,,0.00,0,,195
2013-6-12,97,87,77,74,70,65,79,57,35,30.02,29.92,29.83,10,10,10,16,8,26,0.00,0,,213
2013-6-13,85,78,70,71,66,62,78,60,48,29.97,29.90,29.82,10,10,10,20,11,28,0.00,4,,293
2013-6-14,88,75,62,64,58,54,87,59,32,30.09,30.03,29.96,10,10,10,12,4,17,0.00,0,,32
2013-6-15,90,78,65,65,61,56,87,58,32,30.11,30.03,29.97,10,10,10,9,2,,0.00,0,,169
2013-6-16,91,82,73,71,68,65,81,65,42,30.03,29.98,29.93,10,10,10,9,2,,0.00,0,,191
2013-6-17,90,78,68,73,69,64,89,80,51,29.95,29.93,29.90,10,8,4,15,3,21,0.63,4,Rain-Thunderstorm,113
2013-6-18,87,77,67,70,66,64,88,69,47,29.99,29.93,29.85,10,10,10,14,7,9,0.07,1,Rain,332
2013-6-19,90,79,68,70,66,60,87,65,36,30.06,30.01,29.95,10,10,10,14,4,,0.00,1,,114
2013-6-20,93,82,71,71,68,64,89,64,38,30.14,30.09,30.06,10,10,5,9,3,,0.00,0,,128
2013-6-21,93,82,72,71,69,66,86,61,42,30.17,30.12,30.07,10,10,7,12,5,,0.00,1,,164
2013-6-22,93,82,70,70,67,63,81,61,39,30.15,30.10,30.02,10,10,2,23,8,33,0.45,2,Rain-Thunderstorm,168
2013-6-23,90,80,72,72,68,65,86,68,47,30.13,30.06,29.98,10,10,2,14,6,18,0.15,3,Rain-Thunderstorm,165
2013-6-24,95,82,71,74,71,67,92,70,40,30.12,30.06,30.01,10,9,4,12,4,,0.00,1,,176
2013-6-25,94,86,78,74,72,69,80,64,49,30.04,29.98,29.88,10,10,10,14,8,21,0.00,1,,185
2013-6-26,93,85,77,75,72,69,77,66,49,29.94,29.86,29.76,10,10,5,18,9,26,0.02,2,Rain-Thunderstorm,201
2013-6-27,98,88,77,76,70,62,90,61,31,29.88,29.85,29.80,10,9,4,14,5,18,0.01,0,Thunderstorm,282
2013-6-28,94,84,75,72,65,54,87,55,30,29.85,29.77,29.70,10,10,10,16,5,24,0.00,1,,300
2013-6-29,89,78,68,63,60,56,75,56,35,29.73,29.70,29.65,10,10,10,32,8,41,0.00,2,Rain-Thunderstorm,283
2013-6-30,81,73,65,67,64,60,88,77,55,29.85,29.78,29.71,10,10,2,22,4,28,0.37,5,Rain-Thunderstorm,340